Location: Auckland
(36.8670°S, 174.7670°E)
Time: 03:06:12
(UTC+12:00)

Altair - All Passes

Search period start: 18 July 2019 00:00
Search period end: 28 July 2019 00:00
Orbit: 1501 x 1683 km, 47.2° (Epoch: 17 July)

Date Brightness Start Highest point End Pass type
(mag) Time Alt. Az. Time Alt. Az. Time Alt. Az.
18 Jul - 01:06:06 10° WNW 01:16:21 87° SSW 01:26:34 10° ESE visible
18 Jul - 03:12:23 10° W 03:22:14 49° S 03:31:53 10° ESE visible
18 Jul - 05:19:01 10° WSW 05:28:52 52° SSE 05:38:22 10° E visible
18 Jul - 07:24:22 10° WSW 07:34:23 80° NW 07:43:55 10° NE daylight
18 Jul - 09:30:48 10° WSW 09:38:01 24° NW 09:45:04 10° N daylight
18 Jul - 22:38:48 10° N 22:47:06 30° NE 22:55:26 10° ESE night (unlit)
19 Jul - 00:40:54 10° NW 00:51:07 88° NE 01:01:21 10° ESE visible
19 Jul - 02:47:02 10° W 02:56:54 51° SSW 03:06:37 10° ESE visible
19 Jul - 04:53:43 10° WSW 05:03:34 51° SSE 05:13:04 10° E visible
19 Jul - 06:59:08 10° WSW 07:09:12 86° NW 07:18:48 10° NE visible
19 Jul - 09:05:18 10° WSW 09:12:59 27° NW 09:20:26 10° N daylight
19 Jul - 22:14:05 10° N 22:22:01 27° NE 22:29:59 10° ESE night (unlit)
20 Jul - 00:15:43 10° NW 00:25:54 84° NE 00:36:09 10° ESE night (unlit)
20 Jul - 02:21:40 10° W 02:31:35 52° SSW 02:41:23 10° ESE visible
20 Jul - 04:28:25 10° WSW 04:38:14 50° S 04:47:45 10° E visible
20 Jul - 06:33:53 10° WSW 06:44:00 90° SSE 06:53:41 10° NE visible
20 Jul - 08:39:51 10° WSW 08:47:55 30° NW 08:55:44 10° N daylight
20 Jul - 21:49:26 10° N 21:56:55 24° NE 22:04:29 10° ESE night (unlit)
20 Jul - 23:50:33 10° NW 00:00:42 79° NE 00:10:55 10° ESE night (unlit)
21 Jul - 01:56:18 10° W 02:06:15 54° SSW 02:16:07 10° ESE visible
21 Jul - 04:03:05 10° WSW 04:12:54 49° S 04:22:26 10° E visible
21 Jul - 06:08:39 10° WSW 06:18:48 85° SSE 06:28:31 10° ENE visible
21 Jul - 08:14:26 10° WSW 08:22:51 33° NW 08:31:00 10° N daylight
21 Jul - 21:24:51 10° N 21:31:51 22° NE 21:38:55 10° E night (unlit)
21 Jul - 23:25:25 10° NW 23:35:30 74° NE 23:45:41 10° ESE night (unlit)
22 Jul - 01:30:56 10° W 01:40:56 55° SSW 01:50:52 10° ESE visible
22 Jul - 03:37:45 10° WSW 03:47:34 48° S 03:57:07 10° E visible
22 Jul - 05:43:24 10° WSW 05:53:35 81° SSE 06:03:20 10° ENE visible
22 Jul - 07:49:02 10° WSW 07:57:46 37° NW 08:06:12 10° NNE daylight
22 Jul - 21:00:22 10° NNE 21:06:47 19° ENE 21:13:16 10° E visible
22 Jul - 23:00:19 10° NW 23:10:19 69° NE 23:20:27 10° ESE night (unlit)
23 Jul - 01:05:35 10° W 01:15:37 57° SSW 01:25:37 10° ESE visible
23 Jul - 03:12:26 10° WSW 03:22:13 47° S 03:31:47 10° ESE visible
23 Jul - 05:18:10 10° WSW 05:28:21 76° SSE 05:38:07 10° ENE visible
23 Jul - 07:23:41 10° WSW 07:32:41 40° NW 07:41:22 10° NNE daylight
23 Jul - 20:36:00 10° NNE 20:41:44 17° ENE 20:47:30 10° E visible
23 Jul - 22:35:14 10° NW 22:45:08 64° NE 22:55:12 10° ESE night (unlit)
24 Jul - 00:40:15 10° W 00:50:18 60° SSW 01:00:23 10° ESE visible
24 Jul - 02:47:06 10° WSW 02:56:53 47° S 03:06:28 10° ESE visible
24 Jul - 04:52:54 10° WSW 05:03:07 73° SSE 05:12:54 10° ENE visible
24 Jul - 06:58:20 10° WSW 07:07:35 44° NW 07:16:29 10° NNE visible
24 Jul - 20:11:50 10° NNE 20:16:41 15° ENE 20:21:35 10° E visible
24 Jul - 22:10:11 10° NNW 22:19:58 59° NE 22:29:57 10° ESE visible
25 Jul - 00:14:55 10° WNW 00:25:01 62° SSW 00:35:08 10° ESE night (unlit)
25 Jul - 02:21:45 10° WSW 02:31:32 47° S 02:41:09 10° ESE visible
25 Jul - 04:27:39 10° WSW 04:37:52 69° SSE 04:47:40 10° ENE visible
25 Jul - 06:33:01 10° WSW 06:42:29 48° NW 06:51:34 10° NNE visible
25 Jul - 19:47:58 10° NE 19:51:39 13° ENE 19:55:21 10° E visible
25 Jul - 21:45:10 10° NNW 21:54:49 55° NE 22:04:40 10° ESE visible
25 Jul - 23:49:37 10° WNW 23:59:43 65° SSW 00:09:54 10° ESE night (unlit)
26 Jul - 01:56:24 10° WSW 02:06:11 47° S 02:15:49 10° ESE visible
26 Jul - 04:02:24 10° WSW 04:12:35 66° SSE 04:22:25 10° ENE visible
26 Jul - 06:07:43 10° WSW 06:17:21 53° NW 06:26:37 10° NNE visible
26 Jul - 08:18:01 10° WNW 08:20:23 11° WNW 08:22:45 10° NW daylight
26 Jul - 19:24:57 10° NE 19:26:37 10° ENE 19:28:16 10° ENE visible
26 Jul - 21:20:11 10° NNW 21:29:41 51° NE 21:39:23 10° ESE visible
26 Jul - 23:24:20 10° WNW 23:34:26 68° SSW 23:44:40 10° ESE night (unlit)
27 Jul - 01:31:03 10° WSW 01:40:49 47° S 01:50:30 10° ESE visible
27 Jul - 03:37:09 10° WSW 03:47:18 63° SSE 03:57:08 10° ENE visible
27 Jul - 05:42:26 10° WSW 05:52:14 57° NW 06:01:38 10° NNE visible
27 Jul - 07:51:21 10° W 07:55:22 13° WNW 07:59:19 10° NW daylight
27 Jul - 20:55:14 10° NNW 21:04:33 46° NE 21:14:05 10° ESE visible
27 Jul - 22:59:03 10° WNW 23:09:10 72° SSW 23:19:26 10° ESE visible
